Previsão horária em Pliskovschina

Hoje, 3 Março, Quarta-feira

Tempo Temperatura Precipitação Vento Pressão Humidade
00:00 -3°C° 0 mm 4 m/s 744 mmHg 81%
01:00 -2°C° 0 mm 3 m/s 745 mmHg 83%
02:00 -4°C° 0 mm 3 m/s 745 mmHg 88%
03:00 -5°C° 0 mm 3 m/s 745 mmHg 90%
04:00 -5°C° 0 mm 3 m/s 744 mmHg 91%
05:00 -5°C° 0 mm 3 m/s 744 mmHg 92%
06:00 -5°C° 0 mm 3 m/s 744 mmHg 91%
07:00 -4°C° 0 mm 3 m/s 745 mmHg 90%
08:00 -4°C° 0 mm 3 m/s 745 mmHg 89%
09:00 -2°C° 0 mm 3 m/s 744 mmHg 82%
10:00 0°C° 0 mm 3 m/s 744 mmHg 76%
11:00 0°C° 0 mm 4 m/s 744 mmHg 69%
12:00 +1°C° 0 mm 4 m/s 744 mmHg 66%
13:00 +3°C° 0 mm 4 m/s 743 mmHg 63%
14:00 +3°C° 0 mm 4 m/s 743 mmHg 59%
15:00 +3°C° 0 mm 4 m/s 742 mmHg 63%
16:00 +2°C° 0 mm 3 m/s 741 mmHg 66%
17:00 +2°C° 0 mm 3 m/s 741 mmHg 69%
18:00 +1°C° 0 mm 3 m/s 740 mmHg 71%
19:00 0°C° 0 mm 3 m/s 740 mmHg 73%
20:00 -2°C° 0 mm 4 m/s 739 mmHg 75%
21:00 -2°C° 0 mm 4 m/s 738 mmHg 76%
22:00 -2°C° 0 mm 4 m/s 737 mmHg 78%
23:00 -2°C° 0 mm 4 m/s 737 mmHg 80%

Amanhã, 4 Março, Quinta-feira

Tempo Temperatura Precipitação Vento Pressão Humidade
00:00 -2°C° 0 mm 4 m/s 736 mmHg 84%
01:00 -2°C° 0 mm 4 m/s 736 mmHg 89%
02:00 -2°C° 0 mm 4 m/s 735 mmHg 93%
03:00 -3°C° 0 mm 4 m/s 734 mmHg 93%
04:00 -3°C° 0 mm 4 m/s 733 mmHg 94%
05:00 -2°C° 0 mm 3 m/s 732 mmHg 94%
06:00 -3°C° 0 mm 4 m/s 732 mmHg 95%
07:00 -3°C° 0 mm 4 m/s 731 mmHg 95%
08:00 -3°C° 0 mm 4 m/s 730 mmHg 95%
09:00 -2°C° 0 mm 4 m/s 730 mmHg 93%
10:00 -1°C° 0 mm 4 m/s 730 mmHg 91%
11:00 0°C° 0 mm 5 m/s 729 mmHg 88%
12:00 0°C° 0 mm 5 m/s 729 mmHg 88%
13:00 0°C° 0 mm 5 m/s 729 mmHg 87%
14:00 0°C° 0 mm 5 m/s 729 mmHg 87%
15:00 -1°C° 0 mm 5 m/s 729 mmHg 89%
16:00 -1°C° 0 mm 4 m/s 729 mmHg 92%
17:00 -1°C° 0 mm 4 m/s 729 mmHg 95%
18:00 -2°C° 0.2 mm 4 m/s 729 mmHg 91%
19:00 -3°C° 0.2 mm 4 m/s 729 mmHg 87%
20:00 -3°C° 0.2 mm 4 m/s 730 mmHg 82%
21:00 -4°C° 0 mm 4 m/s 730 mmHg 81%
22:00 -4°C° 0 mm 4 m/s 730 mmHg 80%
23:00 -5°C° 0 mm 3 m/s 731 mmHg 78%

Depois de amanhã, 5 Março, Sexta-feira

Tempo Temperatura Precipitação Vento Pressão Humidade
00:00 -5°C° 0 mm 3 m/s 731 mmHg 80%
01:00 -5°C° 0 mm 3 m/s 731 mmHg 83%
02:00 -6°C° 0 mm 3 m/s 732 mmHg 85%
03:00 -6°C° 0 mm 3 m/s 732 mmHg 85%
04:00 -6°C° 0 mm 3 m/s 732 mmHg 85%
05:00 -6°C° 0 mm 3 m/s 733 mmHg 84%
06:00 -7°C° 0 mm 3 m/s 733 mmHg 82%
07:00 -6°C° 0 mm 2 m/s 733 mmHg 80%
08:00 -6°C° 0 mm 2 m/s 733 mmHg 78%
09:00 -6°C° 0 mm 3 m/s 733 mmHg 69%
10:00 -5°C° 0 mm 3 m/s 734 mmHg 60%
11:00 -2°C° 0 mm 3 m/s 734 mmHg 52%
12:00 -2°C° 0 mm 3 m/s 734 mmHg 50%
13:00 -2°C° 0 mm 4 m/s 734 mmHg 49%
14:00 -2°C° 0 mm 4 m/s 735 mmHg 48%
15:00 -2°C° 0.1 mm 4 m/s 735 mmHg 51%
16:00 -4°C° 0.1 mm 5 m/s 735 mmHg 54%
17:00 -4°C° 0.1 mm 5 m/s 735 mmHg 57%
18:00 -4°C° 0 mm 4 m/s 736 mmHg 58%
19:00 -5°C° 0 mm 3 m/s 736 mmHg 59%
20:00 -5°C° 0 mm 2 m/s 737 mmHg 61%
21:00 -5°C° 0 mm 2 m/s 737 mmHg 60%
22:00 -5°C° 0 mm 2 m/s 738 mmHg 59%
23:00 -5°C° 0 mm 2 m/s 738 mmHg 58%

6 Março, Sábado

Tempo Temperatura Precipitação Vento Pressão Humidade
00:00 -5°C° 0 mm 2 m/s 739 mmHg 64%
01:00 -7°C° 0 mm 3 m/s 739 mmHg 70%
02:00 -7°C° 0 mm 3 m/s 739 mmHg 76%
03:00 -7°C° 0 mm 3 m/s 740 mmHg 75%
04:00 -8°C° 0 mm 3 m/s 740 mmHg 74%
05:00 -9°C° 0 mm 4 m/s 740 mmHg 73%
06:00 -9°C° 0 mm 4 m/s 740 mmHg 71%
07:00 -9°C° 0 mm 4 m/s 741 mmHg 70%
08:00 -9°C° 0 mm 4 m/s 741 mmHg 68%
09:00 -8°C° 0 mm 4 m/s 742 mmHg 64%
10:00 -7°C° 0 mm 5 m/s 742 mmHg 60%
11:00 -7°C° 0 mm 5 m/s 742 mmHg 57%
12:00 -6°C° 0 mm 5 m/s 742 mmHg 54%
13:00 -6°C° 0 mm 5 m/s 742 mmHg 51%
14:00 -5°C° 0 mm 5 m/s 742 mmHg 48%
15:00 -4°C° 0 mm 4 m/s 742 mmHg 47%
16:00 -4°C° 0 mm 4 m/s 741 mmHg 46%
17:00 -4°C° 0 mm 3 m/s 741 mmHg 46%
18:00 -4°C° 0 mm 4 m/s 741 mmHg 50%
19:00 -5°C° 0 mm 4 m/s 741 mmHg 54%
20:00 -5°C° 0 mm 4 m/s 740 mmHg 59%
21:00 -6°C° 0 mm 5 m/s 740 mmHg 62%
22:00 -6°C° 0 mm 6 m/s 739 mmHg 65%
23:00 -6°C° 0 mm 6 m/s 738 mmHg 68%

7 Março, Domingo

Tempo Temperatura Precipitação Vento Pressão Humidade
00:00 -7°C° 0 mm 7 m/s 738 mmHg 65%
01:00 -7°C° 0 mm 8 m/s 737 mmHg 63%
02:00 -6°C° 0 mm 8 m/s 736 mmHg 61%
03:00 -6°C° 0 mm 8 m/s 735 mmHg 64%
04:00 -6°C° 0 mm 9 m/s 734 mmHg 67%
05:00 -6°C° 0 mm 9 m/s 733 mmHg 70%
06:00 -6°C° 0 mm 9 m/s 733 mmHg 72%
07:00 -6°C° 0 mm 9 m/s 732 mmHg 74%
08:00 -7°C° 0 mm 10 m/s 732 mmHg 77%
09:00 -5°C° 0 mm 10 m/s 731 mmHg 78%
10:00 -5°C° 0 mm 10 m/s 731 mmHg 79%
11:00 -4°C° 0 mm 10 m/s 731 mmHg 80%
12:00 -4°C° 0.4 mm 9 m/s 731 mmHg 84%
13:00 -4°C° 0.4 mm 9 m/s 731 mmHg 88%
14:00 -4°C° 0.4 mm 8 m/s 731 mmHg 92%
15:00 -4°C° 0.4 mm 8 m/s 730 mmHg 87%
16:00 -3°C° 0.4 mm 7 m/s 730 mmHg 82%
17:00 -3°C° 0.4 mm 6 m/s 730 mmHg 78%
18:00 -4°C° 0 mm 6 m/s 731 mmHg 77%
19:00 -5°C° 0 mm 5 m/s 731 mmHg 77%
20:00 -5°C° 0 mm 5 m/s 731 mmHg 77%
21:00 -5°C° 0 mm 4 m/s 732 mmHg 77%
22:00 -5°C° 0 mm 4 m/s 732 mmHg 76%
23:00 -6°C° 0 mm 3 m/s 732 mmHg 76%

8 Março, Segunda-feira

Tempo Temperatura Precipitação Vento Pressão Humidade
00:00 -6°C° 0 mm 3 m/s 732 mmHg 75%
01:00 -6°C° 0 mm 3 m/s 732 mmHg 74%
02:00 -6°C° 0 mm 2 m/s 732 mmHg 73%
03:00 -6°C° 0 mm 2 m/s 732 mmHg 73%
04:00 -4°C° 0 mm 1 m/s 732 mmHg 73%
05:00 -4°C° 0 mm 1 m/s 732 mmHg 73%
06:00 -4°C° 0.1 mm 1 m/s 732 mmHg 75%
07:00 -4°C° 0.1 mm 1 m/s 732 mmHg 77%
08:00 -4°C° 0.1 mm 1 m/s 732 mmHg 79%
09:00 -5°C° 0 mm 2 m/s 732 mmHg 74%
10:00 -5°C° 0 mm 3 m/s 732 mmHg 69%
11:00 -4°C° 0 mm 3 m/s 732 mmHg 64%
12:00 -4°C° 0.1 mm 4 m/s 733 mmHg 64%
13:00 -4°C° 0.1 mm 4 m/s 733 mmHg 64%
14:00 -5°C° 0.1 mm 5 m/s 734 mmHg 64%
15:00 -6°C° 0 mm 5 m/s 734 mmHg 63%
16:00 -7°C° 0 mm 5 m/s 735 mmHg 61%
17:00 -9°C° 0 mm 6 m/s 735 mmHg 60%
18:00 -8°C° 0 mm 5 m/s 736 mmHg 60%
19:00 -10°C° 0 mm 5 m/s 737 mmHg 60%
20:00 -10°C° 0 mm 5 m/s 737 mmHg 61%
21:00 -11°C° 0 mm 5 m/s 738 mmHg 60%
22:00 -11°C° 0 mm 5 m/s 739 mmHg 60%
23:00 -12°C° 0 mm 5 m/s 740 mmHg 60%
Mostrar mais

Necessitamos do seu Consentimento

A Meteoprog e os seus Fornecedores de Serviços podem armazenar e aceder a dados pessoais como cookies, identificadores do dispositivo ou outras tecnologias semelhantes existentes no seu dispositivo e processar estes dados para personalizar conteúdos e anúncios, assim como funcionalidades nas redes sociais e análise de tráfego.

  • Armazenar e/ou aceder a informações no seu dispositivo

    Os cookies, identificadores do dispositivo ou outras informações podem ser armazenados ou acedidos no seu dispositivo, para os fins acima indicados.

  • Anúncios e conteúdos personalizados, medição de anúncios e conteúdos, dados sobre o público-alvo e desenvolvimento de produtos

    Os anúncios e os conteúdos podem ser personalizados com base num perfil. Podem ser adicionados dados adicionais para uma maior personalização dos anúncios e dos conteúdos. A eficácia dos anúncios e dos conteúdos pode ser medida. Podem ser obtidas informações sobre o público que visualizou os anúncios e os conteúdos. Estes dados podem ser usados para desenvolver ou melhorar sistemas, softwares ou a experiência do utilizador.

Ao clicar em "Eu concordo”, permitirá o uso de cookies, identificadores do dispositivo e web beacons mencionados ou outras tecnologias semelhantes. As configurações do navegador do seu dispositivo podem ser alteradas.

Para certos fins, podem ser invocados interesses legítimos ao invés de consentimento. Pode ler mais informação sobre este assunto na nossa Política de Privacidade e Cookies.